Flag for Taiwan Weather past 2 weeks in Taipei, Taiwan

Now
84 °F

Sprinkles. Partly sunny.


Feels Like: 87 °F
Forecast: 76 / 88 °F
Wind: 30 mph from Southeast

Location: Sungshan / Taipei

Current Time: Sep 21, 2014 at 2:45:09 PM

Latest Report: Sep 21, 2014 at 2:00 PM


Visibility: N/A

Pressure: 29.45 "Hg

Humidity: 58%

Dew point: 68 °F

Location of TaipeiLocation

Historic Weather in Taipei — Graph

°F

Taipei temperature yesterday

Maximum temperature yesterday: 97 °F (at 11:50 AM)
Minimum temperature yesterday: 84 °F (at 12:00 AM)
Average temperature yesterday: 89 °F

Past Weeks' High & Low Weather Summary

 TemperatureHumidityPressure
High97 °F (Sep 16, 10:30 AM)89% (Sep 11, 6:00 AM)29.95 "Hg (Sep 11, 6:00 AM)
Low79 °F (Sep 11, 6:00 AM)34% (Sep 21, 12:00 PM)29.47 "Hg (Sep 21, 4:00 AM)
Average87 °F63%29.75 "Hg
* Reported Sep 6 1:00 PM — Sep 21 1:30 PM, Taipei, Weather by CustomWeather, © 2014

Note: Actual official high and low records may vary slightly from our data, if they occured in-between our weather recording intervals... More about our weather records

Advertising

Taipei weather history for previous 24 hours

 ConditionsComfort  
Time TempWeatherWind HumidityBarometerVisibility
1:30 PM
Sep 21
84 °FSprinkles. Partly sunny.29 mph58%29.47 "HgN/A
1:00 PM82 °FSprinkles. Partly sunny.35 mph62%29.47 "HgN/A
12:30 PM90 °FScattered showers. Partly sunny.25 mph41%29.47 "HgN/A
12:00 PM93 °FPartly sunny.24 mph34%29.50 "HgN/A
11:30 AM93 °FPartly sunny.21 mph36%29.50 "HgN/A
11:00 AM90 °FPartly sunny.25 mph41%29.53 "HgN/A
10:30 AM90 °FPartly sunny.28 mph41%29.50 "HgN/A
10:00 AM91 °FPartly sunny.26 mph38%29.50 "HgN/A
9:30 AM91 °FBroken clouds.20 mph36%29.50 "HgN/A
9:00 AM91 °FBroken clouds.25 mph38%29.50 "HgN/A
8:30 AM91 °FBroken clouds.28 mph38%29.50 "HgN/A
8:00 AM90 °FLight rain. Partly sunny.18 mph43%29.50 "HgN/A
7:30 AM88 °FLight rain. Partly sunny.22 mph46%29.47 "HgN/A
7:00 AM88 °FSprinkles. Partly sunny.17 mph46%29.47 "HgN/A
6:30 AM88 °FSprinkles. Partly sunny.16 mph46%29.47 "HgN/A
6:00 AM88 °FSprinkles. Partly sunny.18 mph46%29.47 "HgN/A
5:00 AM86 °FPassing clouds.24 mph52%29.47 "HgN/A
4:00 AM84 °FSprinkles. Partly cloudy.20 mph62%29.47 "HgN/A
3:00 AM86 °FPartly cloudy.21 mph59%29.50 "HgN/A
2:00 AM86 °FPassing clouds.18 mph59%29.53 "HgN/A
1:00 AM84 °FPassing clouds.12 mph66%29.53 "HgN/A
9:30 PM
Sep 20
86 °FPassing clouds.15 mph62%29.59 "HgN/A
9:00 PM86 °FPassing clouds.15 mph62%29.56 "HgN/A
8:30 PM86 °FPassing clouds.16 mph62%29.56 "HgN/A
8:00 PM86 °FPassing clouds.15 mph62%29.56 "HgN/A
7:30 PM86 °FPassing clouds.15 mph59%29.56 "HgN/A
7:00 PM86 °FPassing clouds.16 mph62%29.56 "HgN/A
6:56 PM86 °FPassing clouds.16 mph62%29.56 "HgN/A
6:30 PM86 °FPassing clouds.16 mph62%29.53 "HgN/A
6:00 PM88 °FPassing clouds.15 mph59%29.56 "HgN/A
5:30 PM88 °FScattered clouds.14 mph59%29.56 "HgN/A
5:00 PM88 °FScattered clouds.17 mph55%29.53 "HgN/A
4:30 PM90 °FScattered clouds.17 mph52%29.53 "HgN/A
4:00 PM91 °FScattered clouds.18 mph52%29.53 "HgN/A
3:30 PM91 °FScattered clouds.16 mph49%29.53 "HgN/A
3:00 PM91 °FScattered clouds.14 mph52%29.53 "HgN/A
2:30 PM91 °FScattered clouds.16 mph52%29.50 "HgN/A
2:00 PM91 °FPartly sunny.20 mph52%29.53 "HgN/A
Weather by CustomWeather, © 2014

See weather overviewHow to use our weather pages